Location: Grand Rapids
(42.9630°N, 85.6680°W)
Time: 01:33:41
(UTC-04:00)

S-56A Canister/Altair - Pass Details

Date: 30 May 2024
Orbit: 637 x 2489 km, 38.9° (Epoch: 21 June)

Event Time Altitude Azimuth Distance (km) Brightness Sun altitude
Rises 08:37:46 0° 270° (W) 6,026 11.5 25.0°
Reaches altitude 10° 08:41:59 10° 269° (W) 4,870 11.1 25.8°
Maximum altitude 08:55:09 70° 190° (S) 1,879 9.9 28.2°
Drops below altitude 10° 09:04:02 10° 109° (ESE) 3,396 12.1 29.8°
Sets 09:06:29 0° 107° (ESE) 4,153 12.3 30.2°
